Location: Pompeys Pillar
(45.9913°N, 107.9528°W)
Time: 18:37:09
(UTC+00:00)

Tiangong - Visible Passes

Search period start: 21 January 2022 00:00
Search period end: 31 January 2022 00:00
Orbit: 383 x 386 km, 41.5° (Epoch: 21 January)

Date Brightness Start Highest point End Pass type
(mag) Time Alt. Az. Time Alt. Az. Time Alt. Az.
28 Jan 3.3 02:04:18 10° SSW 02:05:47 17° S 02:05:47 17° S visible
29 Jan 3.5 01:05:31 10° S 01:06:58 13° SSE 01:08:25 10° SE visible
29 Jan 3.9 02:40:23 10° SW 02:41:09 15° SW 02:41:09 15° SW visible
30 Jan 2.6 01:40:53 10° SW 01:43:31 24° SSE 01:44:14 22° SE visible
